Location: Casteau
(50.5142°N, 4.0161°E)
Time: 17:17:40
(UTC+00:00)

S-56A Canister/Altair - Pass Details

Date: 08 August 2021
Orbit: 632 x 2500 km, 38.9° (Epoch: 20 September)

Event Time Altitude Azimuth Distance (km) Brightness Sun altitude
Rises 19:32:37 0° 278° (W) 6,090 13.7 -3.1°
Reaches altitude 10° 19:38:49 10° 261° (W) 5,163 12.6 -4.0°
Maximum altitude 19:46:27 16° 230° (SW) 4,596 11.7 -5.0°
Drops below altitude 10° 19:53:47 10° 198° (SSW) 4,890 11.5 -6.0°
Sets 19:59:27 0° 180° (S) 5,621 11.6 -6.7°
